Time,TemperatureF,DewpointF,PressureIn,WindDirection,WindDirectionDegrees,WindSpeedMPH,WindSpeedGustMPH,Humidity,HourlyPrecipIn,Conditions,Clouds,dailyrainin,SoftwareType,DateUTC
2013-04-29 00:02:00,46.6,35.1,30.19,South,178,0.0,6.0,64,0.00,,,0.00,meteohub,2013-04-29 07:02:00,
2013-04-29 00:07:00,46.8,35.2,30.19,South,188,3.0,11.0,64,0.00,,,0.00,meteohub,2013-04-29 07:07:00,
2013-04-29 00:12:00,46.8,35.2,30.19,SW,236,1.0,11.0,64,0.00,,,0.00,meteohub,2013-04-29 07:12:00,
2013-04-29 00:17:00,46.8,35.2,30.19,SSW,204,2.0,11.0,64,0.00,,,0.00,meteohub,2013-04-29 07:17:00,
2013-04-29 00:22:00,46.6,35.8,30.19,West,265,0.0,11.0,66,0.00,,,0.00,meteohub,2013-04-29 07:22:00,
2013-04-29 00:27:00,46.6,36.1,30.19,SSW,193,0.0,5.0,67,0.00,,,0.00,meteohub,2013-04-29 07:27:00,
2013-04-29 00:32:00,46.4,35.6,30.19,WSW,244,0.0,5.0,66,0.00,,,0.00,meteohub,2013-04-29 07:32:00,
2013-04-29 00:37:00,46.4,36.0,30.19,WSW,258,2.0,5.0,67,0.00,,,0.00,meteohub,2013-04-29 07:37:00,
2013-04-29 00:42:00,46.2,36.0,30.19,South,186,8.0,8.0,67,0.00,,,0.00,meteohub,2013-04-29 07:42:00,
2013-04-29 00:47:00,46.2,36.0,30.19,NW,305,0.0,11.0,67,0.00,,,0.00,meteohub,2013-04-29 07:47:00,
2013-04-29 00:52:00,46.0,36.1,30.18,West,270,0.0,11.0,68,0.00,,,0.00,meteohub,2013-04-29 07:52:00,
2013-04-29 00:57:00,46.0,36.1,30.18,WSW,240,0.0,11.0,68,0.00,,,0.00,meteohub,2013-04-29 07:57:00,
2013-04-29 01:02:00,45.9,36.3,30.18,West,265,1.0,5.0,69,0.00,,,0.00,meteohub,2013-04-29 08:02:00,
2013-04-29 01:07:00,45.9,36.3,30.18,SSE,162,0.0,8.0,69,0.00,,,0.00,meteohub,2013-04-29 08:07:00,
2013-04-29 01:12:00,45.7,36.5,30.18,WSW,250,0.0,8.0,70,0.00,,,0.00,meteohub,2013-04-29 08:12:00,
2013-04-29 01:17:00,45.7,37.6,30.18,SSW,192,1.0,6.0,73,0.00,,,0.00,meteohub,2013-04-29 08:17:00,
2013-04-29 01:22:00,45.1,37.8,30.17,West,272,5.0,8.0,75,0.00,,,0.00,meteohub,2013-04-29 08:22:00,
2013-04-29 01:27:00,44.8,37.8,30.17,South,182,0.0,8.0,76,0.00,,,0.00,meteohub,2013-04-29 08:27:00,
2013-04-29 01:32:00,44.4,37.4,30.17,SSW,192,3.0,10.0,76,0.00,,,0.00,meteohub,2013-04-29 08:32:00,
2013-04-29 01:37:00,44.4,37.0,30.17,South,190,0.0,10.0,75,0.00,,,0.00,meteohub,2013-04-29 08:37:00,
2013-04-29 01:42:00,44.4,37.4,30.17,West,269,0.0,10.0,76,0.00,,,0.00,meteohub,2013-04-29 08:42:00,
2013-04-29 01:47:00,44.4,37.4,30.17,WSW,250,0.0,8.0,76,0.00,,,0.00,meteohub,2013-04-29 08:47:00,
2013-04-29 01:52:00,44.2,37.2,30.16,SSW,201,5.0,8.0,76,0.00,,,0.00,meteohub,2013-04-29 08:52:00,
2013-04-29 01:57:00,44.2,37.2,30.16,SSW,206,1.0,8.0,76,0.00,,,0.00,meteohub,2013-04-29 08:57:00,
2013-04-29 02:02:00,44.2,37.2,30.16,SSW,206,0.0,8.0,76,0.00,,,0.00,meteohub,2013-04-29 09:02:00,
2013-04-29 02:07:00,44.2,37.6,30.14,SSW,213,0.0,8.0,77,0.00,,,0.00,meteohub,2013-04-29 09:07:00,
2013-04-29 02:12:00,44.2,37.6,30.14,West,259,0.0,8.0,77,0.00,,,0.00,meteohub,2013-04-29 09:12:00,
2013-04-29 02:17:00,44.1,37.9,30.14,SSW,195,4.0,10.0,79,0.00,,,0.00,meteohub,2013-04-29 09:17:00,
2013-04-29 02:22:00,43.9,38.5,30.14,SW,219,0.0,10.0,81,0.00,,,0.00,meteohub,2013-04-29 09:22:00,
2013-04-29 02:27:00,43.5,38.5,30.14,West,267,0.0,8.0,82,0.00,,,0.00,meteohub,2013-04-29 09:27:00,
2013-04-29 02:32:00,43.3,38.5,30.14,WSW,248,2.0,10.0,83,0.00,,,0.00,meteohub,2013-04-29 09:32:00,
2013-04-29 02:37:00,43.2,38.7,30.13,South,191,2.0,10.0,84,0.00,,,0.00,meteohub,2013-04-29 09:37:00,
2013-04-29 02:42:00,43.0,38.5,30.13,SSW,193,4.0,10.0,84,0.00,,,0.00,meteohub,2013-04-29 09:42:00,
2013-04-29 02:47:00,42.8,38.7,30.13,SSW,207,0.0,13.0,85,0.00,,,0.00,meteohub,2013-04-29 09:47:00,
2013-04-29 02:52:00,42.6,38.5,30.12,West,259,0.0,13.0,85,0.01,,,0.01,meteohub,2013-04-29 09:52:00,
2013-04-29 02:57:00,42.6,38.7,30.12,WSW,240,4.0,13.0,86,0.01,,,0.01,meteohub,2013-04-29 09:57:00,
2013-04-29 03:02:00,42.6,39.0,30.12,SSW,213,5.0,9.0,87,0.01,,,0.01,meteohub,2013-04-29 10:02:00,
2013-04-29 03:07:00,42.6,39.0,30.12,SSW,209,1.0,7.0,87,0.01,,,0.01,meteohub,2013-04-29 10:07:00,
2013-04-29 03:12:00,42.8,39.2,30.12,South,191,0.0,7.0,87,0.01,,,0.01,meteohub,2013-04-29 10:12:00,
2013-04-29 03:17:00,42.8,39.2,30.12,WSW,257,2.0,7.0,87,0.01,,,0.01,meteohub,2013-04-29 10:17:00,
2013-04-29 03:22:00,43.0,39.4,30.11,WSW,253,0.0,8.0,87,0.01,,,0.01,meteohub,2013-04-29 10:22:00,
2013-04-29 03:27:00,43.0,39.4,30.11,SSW,199,3.0,8.0,87,0.01,,,0.01,meteohub,2013-04-29 10:27:00,
2013-04-29 03:32:00,43.0,39.4,30.11,SW,224,2.0,9.0,87,0.01,,,0.01,meteohub,2013-04-29 10:32:00,
2013-04-29 03:37:00,43.0,39.0,30.11,WSW,248,3.0,9.0,86,0.01,,,0.01,meteohub,2013-04-29 10:37:00,
2013-04-29 03:42:00,43.2,39.2,30.11,SSW,207,5.0,10.0,86,0.01,,,0.01,meteohub,2013-04-29 10:42:00,
2013-04-29 03:47:00,43.2,39.2,30.11,WSW,249,1.0,10.0,86,0.01,,,0.01,meteohub,2013-04-29 10:47:00,
2013-04-29 03:52:00,43.3,39.2,30.10,SW,221,0.0,9.0,85,0.00,,,0.01,meteohub,2013-04-29 10:52:00,
2013-04-29 03:57:00,43.3,39.2,30.10,West,263,4.0,10.0,85,0.00,,,0.01,meteohub,2013-04-29 10:57:00,
2013-04-29 04:02:00,43.3,39.2,30.10,South,181,1.0,10.0,85,0.00,,,0.01,meteohub,2013-04-29 11:02:00,
2013-04-29 04:07:00,43.3,39.4,30.10,WSW,243,5.0,10.0,86,0.00,,,0.01,meteohub,2013-04-29 11:07:00,
2013-04-29 04:12:00,43.3,39.4,30.10,SSE,162,3.0,10.0,86,0.01,,,0.01,meteohub,2013-04-29 11:12:00,
2013-04-29 04:17:00,43.3,39.4,30.10,SSW,193,4.0,8.0,86,0.01,,,0.02,meteohub,2013-04-29 11:17:00,
2013-04-29 04:22:00,43.3,39.4,30.10,WSW,252,0.0,8.0,86,0.01,,,0.02,meteohub,2013-04-29 11:22:00,
2013-04-29 04:27:00,43.3,39.4,30.10,South,182,0.0,8.0,86,0.01,,,0.02,meteohub,2013-04-29 11:27:00,
2013-04-29 04:32:00,43.2,39.2,30.10,SW,236,2.0,8.0,86,0.01,,,0.02,meteohub,2013-04-29 11:32:00,
2013-04-29 04:37:00,43.2,39.6,30.10,ESE,113,7.0,10.0,87,0.01,,,0.02,meteohub,2013-04-29 11:37:00,
2013-04-29 04:42:00,43.2,39.2,30.10,South,184,2.0,10.0,86,0.01,,,0.02,meteohub,2013-04-29 11:42:00,
2013-04-29 04:47:00,43.2,39.2,30.10,WSW,245,2.0,8.0,86,0.01,,,0.02,meteohub,2013-04-29 11:47:00,
2013-04-29 04:52:00,43.2,39.2,30.10,SSW,208,1.0,9.0,86,0.02,,,0.03,meteohub,2013-04-29 11:52:00,
2013-04-29 04:57:00,43.2,39.2,30.10,South,169,2.0,9.0,86,0.02,,,0.03,meteohub,2013-04-29 11:57:00,
2013-04-29 05:02:00,43.0,39.0,30.10,South,188,3.0,12.0,86,0.03,,,0.04,meteohub,2013-04-29 12:02:00,
2013-04-29 05:07:00,43.0,39.0,30.09,SSW,207,2.0,12.0,86,0.03,,,0.04,meteohub,2013-04-29 12:07:00,
2013-04-29 05:12:00,43.0,39.4,30.09,WSW,245,4.0,12.0,87,0.02,,,0.04,meteohub,2013-04-29 12:12:00,
2013-04-29 05:17:00,43.0,39.4,30.09,WSW,257,1.0,9.0,87,0.02,,,0.04,meteohub,2013-04-29 12:17:00,
2013-04-29 05:22:00,43.0,39.4,30.09,SSW,209,0.0,9.0,87,0.02,,,0.04,meteohub,2013-04-29 12:22:00,
2013-04-29 05:27:00,42.8,39.2,30.09,SSW,208,2.0,6.0,87,0.02,,,0.04,meteohub,2013-04-29 12:27:00,
2013-04-29 05:32:00,42.8,39.2,30.09,West,261,1.0,7.0,87,0.02,,,0.04,meteohub,2013-04-29 12:32:00,
2013-04-29 05:37:00,42.8,39.2,30.09,WSW,239,1.0,7.0,87,0.02,,,0.04,meteohub,2013-04-29 12:37:00,
2013-04-29 05:42:00,42.8,39.2,30.09,South,186,4.0,7.0,87,0.02,,,0.04,meteohub,2013-04-29 12:42:00,
2013-04-29 05:47:00,42.8,38.8,30.09,SSW,209,1.0,7.0,86,0.02,,,0.04,meteohub,2013-04-29 12:47:00,
2013-04-29 05:52:00,42.6,38.7,30.08,SSE,148,0.0,7.0,86,0.01,,,0.04,meteohub,2013-04-29 12:52:00,
2013-04-29 05:57:00,42.6,38.7,30.08,SW,216,0.0,8.0,86,0.01,,,0.04,meteohub,2013-04-29 12:57:00,
2013-04-29 06:02:00,42.6,39.0,30.08,South,191,1.0,8.0,87,0.00,,,0.04,meteohub,2013-04-29 13:02:00,
2013-04-29 06:07:00,42.6,39.0,30.07,SW,223,1.0,8.0,87,0.00,,,0.04,meteohub,2013-04-29 13:07:00,
2013-04-29 06:12:00,42.6,38.7,30.07,SSE,165,1.0,6.0,86,0.00,,,0.04,meteohub,2013-04-29 13:12:00,
2013-04-29 06:17:00,42.6,38.7,30.07,WSW,249,0.0,6.0,86,0.00,,,0.04,meteohub,2013-04-29 13:17:00,
2013-04-29 06:22:00,42.6,38.7,30.08,WSW,254,0.0,6.0,86,0.01,,,0.05,meteohub,2013-04-29 13:22:00,
2013-04-29 06:27:00,42.6,38.7,30.08,SW,215,1.0,8.0,86,0.01,,,0.05,meteohub,2013-04-29 13:27:00,
2013-04-29 06:32:00,42.6,38.7,30.08,SSW,211,0.0,8.0,86,0.01,,,0.05,meteohub,2013-04-29 13:32:00,
2013-04-29 06:37:00,42.6,38.5,30.08,SW,227,0.0,10.0,85,0.01,,,0.05,meteohub,2013-04-29 13:37:00,
2013-04-29 06:42:00,42.6,38.5,30.08,SSE,159,2.0,10.0,85,0.01,,,0.05,meteohub,2013-04-29 13:42:00,
2013-04-29 06:47:00,42.6,38.5,30.08,South,182,0.0,10.0,85,0.01,,,0.05,meteohub,2013-04-29 13:47:00,
2013-04-29 06:52:00,42.6,38.5,30.08,South,182,3.0,9.0,85,0.01,,,0.05,meteohub,2013-04-29 13:52:00,
2013-04-29 06:57:00,42.6,38.5,30.08,SSW,209,3.0,8.0,85,0.01,,,0.05,meteohub,2013-04-29 13:57:00,
2013-04-29 07:02:00,42.6,38.5,30.08,South,186,0.0,8.0,85,0.01,,,0.05,meteohub,2013-04-29 14:02:00,
2013-04-29 07:07:00,42.6,38.5,30.08,SE,124,0.0,8.0,85,0.01,,,0.05,meteohub,2013-04-29 14:07:00,
2013-04-29 07:12:00,42.6,38.7,30.08,South,173,3.0,8.0,86,0.01,,,0.05,meteohub,2013-04-29 14:12:00,
2013-04-29 07:17:00,42.6,38.7,30.08,West,259,0.0,8.0,86,0.00,,,0.05,meteohub,2013-04-29 14:17:00,
2013-04-29 07:22:00,42.6,39.0,30.08,SSW,208,1.0,8.0,87,0.01,,,0.06,meteohub,2013-04-29 14:22:00,
2013-04-29 07:27:00,42.6,39.0,30.08,WSW,252,4.0,6.0,87,0.01,,,0.06,meteohub,2013-04-29 14:27:00,
2013-04-29 07:32:00,42.6,39.0,30.08,SW,223,0.0,7.0,87,0.01,,,0.06,meteohub,2013-04-29 14:32:00,
2013-04-29 07:37:00,42.6,39.0,30.08,SW,234,3.0,11.0,87,0.01,,,0.06,meteohub,2013-04-29 14:37:00,
2013-04-29 07:42:00,42.6,39.0,30.08,WSW,254,0.0,11.0,87,0.01,,,0.06,meteohub,2013-04-29 14:42:00,
2013-04-29 07:48:00,42.6,38.7,30.08,WSW,238,1.0,11.0,86,0.01,,,0.06,meteohub,2013-04-29 14:48:00,
2013-04-29 07:53:00,42.6,39.0,30.09,WSW,252,0.0,11.0,87,0.01,,,0.06,meteohub,2013-04-29 14:53:00,
2013-04-29 07:58:00,43.0,39.4,30.09,WSW,251,2.0,11.0,87,0.01,,,0.06,meteohub,2013-04-29 14:58:00,
2013-04-29 08:03:00,43.2,39.6,30.09,WSW,238,0.0,11.0,87,0.01,,,0.06,meteohub,2013-04-29 15:03:00,
2013-04-29 08:08:00,43.2,39.2,30.08,WSW,247,0.0,9.0,86,0.01,,,0.06,meteohub,2013-04-29 15:08:00,
2013-04-29 08:13:00,43.3,39.2,30.08,SSW,208,0.0,8.0,85,0.01,,,0.06,meteohub,2013-04-29 15:13:00,
2013-04-29 08:18:00,43.3,39.2,30.08,West,265,1.0,8.0,85,0.00,,,0.06,meteohub,2013-04-29 15:18:00,
2013-04-29 08:23:00,43.3,39.2,30.09,SSW,197,1.0,8.0,85,0.00,,,0.06,meteohub,2013-04-29 15:23:00,
2013-04-29 08:28:00,43.3,39.2,30.09,SW,220,3.0,7.0,85,0.00,,,0.06,meteohub,2013-04-29 15:28:00,
2013-04-29 08:33:00,43.3,38.8,30.09,WSW,239,3.0,9.0,84,0.00,,,0.06,meteohub,2013-04-29 15:33:00,
2013-04-29 08:38:00,43.3,39.2,30.09,WSW,242,2.0,9.0,85,0.01,,,0.07,meteohub,2013-04-29 15:38:00,
2013-04-29 08:43:00,43.3,39.2,30.09,West,269,0.0,9.0,85,0.01,,,0.07,meteohub,2013-04-29 15:43:00,
2013-04-29 08:49:00,43.5,39.4,30.09,WSW,252,0.0,7.0,85,0.01,,,0.07,meteohub,2013-04-29 15:49:00,
2013-04-29 08:54:00,43.5,39.6,30.09,WSW,254,0.0,4.0,86,0.01,,,0.07,meteohub,2013-04-29 15:54:00,
2013-04-29 08:59:00,43.3,39.2,30.09,WSW,248,1.0,5.0,85,0.01,,,0.07,meteohub,2013-04-29 15:59:00,
2013-04-29 09:04:00,43.3,39.2,30.09,WSW,249,0.0,9.0,85,0.01,,,0.07,meteohub,2013-04-29 16:04:00,
2013-04-29 09:09:00,43.3,39.4,30.09,West,259,2.0,9.0,86,0.01,,,0.07,meteohub,2013-04-29 16:09:00,
2013-04-29 09:14:00,43.3,39.7,30.09,WSW,249,0.0,9.0,87,0.01,,,0.07,meteohub,2013-04-29 16:14:00,
2013-04-29 09:19:00,43.5,40.3,30.09,WSW,249,0.0,5.0,88,0.01,,,0.07,meteohub,2013-04-29 16:19:00,
2013-04-29 09:24:00,43.7,40.1,30.10,WSW,240,1.0,5.0,87,0.01,,,0.07,meteohub,2013-04-29 16:24:00,
2013-04-29 09:29:00,44.1,40.8,30.10,WSW,240,0.0,3.0,88,0.02,,,0.08,meteohub,2013-04-29 16:29:00,
2013-04-29 09:34:00,44.2,41.0,30.10,WSW,240,0.0,3.0,88,0.02,,,0.08,meteohub,2013-04-29 16:34:00,
2013-04-29 09:39:00,44.4,40.8,30.10,WSW,242,1.0,3.0,87,0.01,,,0.08,meteohub,2013-04-29 16:39:00,
2013-04-29 09:44:00,45.0,41.5,30.10,SW,234,1.0,2.0,88,0.01,,,0.08,meteohub,2013-04-29 16:44:00,
2013-04-29 09:50:00,45.1,41.7,30.10,SSW,201,1.0,3.0,88,0.01,,,0.08,meteohub,2013-04-29 16:50:00,
2013-04-29 09:55:00,45.7,42.1,30.10,WSW,248,1.0,6.0,87,0.02,,,0.09,meteohub,2013-04-29 16:55:00,
2013-04-29 10:00:00,46.0,42.1,30.10,WSW,252,1.0,11.0,86,0.02,,,0.09,meteohub,2013-04-29 17:00:00,
2013-04-29 10:05:00,46.8,42.8,30.10,SW,236,0.0,11.0,86,0.02,,,0.09,meteohub,2013-04-29 17:05:00,
2013-04-29 10:10:00,46.9,42.6,30.10,SW,220,1.0,10.0,85,0.02,,,0.09,meteohub,2013-04-29 17:10:00,
2013-04-29 10:15:00,47.7,42.8,30.10,SSW,205,2.0,9.0,83,0.02,,,0.09,meteohub,2013-04-29 17:15:00,
2013-04-29 10:20:00,47.5,41.9,30.10,WSW,244,2.0,9.0,81,0.02,,,0.09,meteohub,2013-04-29 17:20:00,
2013-04-29 10:25:00,47.8,42.3,30.10,South,184,0.0,9.0,81,0.01,,,0.09,meteohub,2013-04-29 17:25:00,
2013-04-29 10:31:00,48.6,42.6,30.10,South,184,4.0,8.0,80,0.01,,,0.09,meteohub,2013-04-29 17:31:00,
2013-04-29 10:36:00,48.7,42.4,30.10,WSW,249,0.0,9.0,79,0.01,,,0.09,meteohub,2013-04-29 17:36:00,
2013-04-29 10:41:00,48.7,41.2,30.10,SSW,203,3.0,10.0,75,0.01,,,0.09,meteohub,2013-04-29 17:41:00,
2013-04-29 10:46:00,49.1,40.1,30.10,WNW,296,4.0,10.0,71,0.01,,,0.09,meteohub,2013-04-29 17:46:00,
2013-04-29 10:51:00,48.9,39.6,30.10,NW,305,3.0,10.0,70,0.00,,,0.09,meteohub,2013-04-29 17:51:00,
2013-04-29 10:56:00,48.9,40.6,30.10,West,272,6.0,12.0,73,0.00,,,0.09,meteohub,2013-04-29 17:56:00,
2013-04-29 11:01:00,49.1,39.4,30.10,SSW,208,1.0,12.0,69,0.00,,,0.09,meteohub,2013-04-29 18:01:00,
2013-04-29 11:06:00,49.1,38.7,30.10,WSW,245,0.0,12.0,67,0.00,,,0.09,meteohub,2013-04-29 18:06:00,
2013-04-29 11:11:00,50.0,39.6,30.10,WSW,240,3.0,9.0,67,0.00,,,0.09,meteohub,2013-04-29 18:11:00,
2013-04-29 11:16:00,50.2,39.2,30.10,SW,224,0.0,9.0,66,0.00,,,0.09,meteohub,2013-04-29 18:16:00,
2013-04-29 11:21:00,50.2,39.6,30.11,West,261,0.0,12.0,67,0.00,,,0.09,meteohub,2013-04-29 18:21:00,
2013-04-29 11:26:00,50.5,39.2,30.11,West,264,3.0,12.0,65,0.00,,,0.09,meteohub,2013-04-29 18:26:00,
2013-04-29 11:31:00,50.7,39.7,30.11,SW,229,3.0,9.0,66,0.00,,,0.09,meteohub,2013-04-29 18:31:00,
2013-04-29 11:37:00,51.3,39.6,30.12,WSW,257,0.0,13.0,64,0.00,,,0.09,meteohub,2013-04-29 18:37:00,
2013-04-29 11:42:00,51.8,39.6,30.12,WSW,245,3.0,13.0,63,0.00,,,0.09,meteohub,2013-04-29 18:42:00,
2013-04-29 11:47:00,52.3,38.8,30.12,South,186,2.0,7.0,60,0.00,,,0.09,meteohub,2013-04-29 18:47:00,
2013-04-29 11:52:00,52.3,38.8,30.13,SSW,211,4.0,9.0,60,0.00,,,0.09,meteohub,2013-04-29 18:52:00,
2013-04-29 11:57:00,52.3,39.7,30.13,WSW,252,4.0,9.0,62,0.00,,,0.09,meteohub,2013-04-29 18:57:00,
2013-04-29 12:02:00,52.7,38.3,30.13,WSW,243,2.0,9.0,58,0.00,,,0.09,meteohub,2013-04-29 19:02:00,
2013-04-29 12:07:00,53.4,39.0,30.13,WSW,244,0.0,6.0,58,0.00,,,0.09,meteohub,2013-04-29 19:07:00,
2013-04-29 12:12:00,53.8,39.4,30.13,NW,309,6.0,7.0,58,0.00,,,0.09,meteohub,2013-04-29 19:12:00,
2013-04-29 12:17:00,54.1,38.8,30.13,NW,308,1.0,10.0,56,0.00,,,0.09,meteohub,2013-04-29 19:17:00,
2013-04-29 12:22:00,54.1,37.4,30.13,WSW,237,4.0,15.0,53,0.00,,,0.09,meteohub,2013-04-29 19:22:00,
2013-04-29 12:27:00,54.1,36.9,30.13,WNW,293,1.0,15.0,52,0.00,,,0.09,meteohub,2013-04-29 19:27:00,
2013-04-29 12:32:00,54.0,35.8,30.13,WSW,250,3.0,15.0,50,0.00,,,0.09,meteohub,2013-04-29 19:32:00,
2013-04-29 12:37:00,54.0,36.3,30.13,WSW,239,1.0,13.0,51,0.00,,,0.09,meteohub,2013-04-29 19:37:00,
2013-04-29 12:42:00,54.1,36.0,30.13,WSW,257,2.0,13.0,50,0.00,,,0.09,meteohub,2013-04-29 19:42:00,
2013-04-29 12:47:00,54.1,34.3,30.13,West,264,4.0,13.0,47,0.00,,,0.09,meteohub,2013-04-29 19:47:00,
2013-04-29 12:52:00,54.1,33.3,30.12,WNW,282,0.0,11.0,45,0.00,,,0.09,meteohub,2013-04-29 19:52:00,
2013-04-29 12:57:00,54.3,34.5,30.12,WNW,291,1.0,10.0,47,0.00,,,0.09,meteohub,2013-04-29 19:57:00,
2013-04-29 13:02:00,54.3,33.4,30.12,West,275,1.0,14.0,45,0.00,,,0.09,meteohub,2013-04-29 20:02:00,
2013-04-29 13:07:00,54.1,33.8,30.13,WSW,248,1.0,14.0,46,0.00,,,0.09,meteohub,2013-04-29 20:07:00,
2013-04-29 13:12:00,54.3,34.5,30.13,WNW,294,2.0,14.0,47,0.00,,,0.09,meteohub,2013-04-29 20:12:00,
2013-04-29 13:17:00,54.1,34.3,30.13,WSW,243,1.0,8.0,47,0.00,,,0.09,meteohub,2013-04-29 20:17:00,
2013-04-29 13:22:00,53.8,33.4,30.12,SW,229,0.0,12.0,46,0.00,,,0.09,meteohub,2013-04-29 20:22:00,
2013-04-29 13:27:00,53.8,32.9,30.12,WSW,258,2.0,12.0,45,0.00,,,0.09,meteohub,2013-04-29 20:27:00,
2013-04-29 13:32:00,54.0,33.1,30.12,WNW,292,4.0,10.0,45,0.00,,,0.09,meteohub,2013-04-29 20:32:00,
2013-04-29 13:37:00,54.3,34.0,30.12,WSW,250,1.0,11.0,46,0.00,,,0.09,meteohub,2013-04-29 20:37:00,
2013-04-29 13:42:00,55.2,34.2,30.12,SW,233,0.0,11.0,45,0.00,,,0.09,meteohub,2013-04-29 20:42:00,
2013-04-29 13:47:00,55.6,34.0,30.12,SW,215,0.0,10.0,44,0.00,,,0.09,meteohub,2013-04-29 20:47:00,
2013-04-29 13:52:00,55.2,33.6,30.13,WSW,246,0.0,11.0,44,0.00,,,0.09,meteohub,2013-04-29 20:52:00,
2013-04-29 13:57:00,55.0,33.4,30.13,SW,229,0.0,11.0,44,0.00,,,0.09,meteohub,2013-04-29 20:57:00,
2013-04-29 14:02:00,55.6,34.0,30.13,WSW,256,5.0,11.0,44,0.00,,,0.09,meteohub,2013-04-29 21:02:00,
2013-04-29 14:07:00,56.7,34.3,30.12,SSW,198,6.0,8.0,43,0.00,,,0.09,meteohub,2013-04-29 21:07:00,
2013-04-29 14:12:00,57.2,33.6,30.12,NNW,332,2.0,9.0,41,0.00,,,0.09,meteohub,2013-04-29 21:12:00,
2013-04-29 14:17:00,56.5,33.6,30.12,West,267,3.0,10.0,42,0.00,,,0.09,meteohub,2013-04-29 21:17:00,
2013-04-29 14:22:00,55.4,33.8,30.13,WNW,282,3.0,12.0,44,0.00,,,0.09,meteohub,2013-04-29 21:22:00,
2013-04-29 14:27:00,54.9,34.0,30.13,WNW,296,5.0,12.0,45,0.00,,,0.09,meteohub,2013-04-29 21:27:00,
2013-04-29 14:32:00,54.1,33.3,30.13,NW,315,3.0,12.0,45,0.00,,,0.09,meteohub,2013-04-29 21:32:00,
2013-04-29 14:37:00,54.1,32.7,30.13,West,274,0.0,11.0,44,0.00,,,0.09,meteohub,2013-04-29 21:37:00,
2013-04-29 14:42:00,54.0,32.0,30.13,NW,307,9.0,11.0,43,0.00,,,0.09,meteohub,2013-04-29 21:42:00,
2013-04-29 14:47:00,53.4,32.0,30.13,NNW,348,0.0,11.0,44,0.00,,,0.09,meteohub,2013-04-29 21:47:00,
2013-04-29 14:52:00,52.7,31.5,30.13,NW,305,2.0,13.0,44,0.00,,,0.09,meteohub,2013-04-29 21:52:00,
2013-04-29 14:57:00,52.9,33.3,30.13,WNW,300,2.0,13.0,47,0.00,,,0.09,meteohub,2013-04-29 21:57:00,
2013-04-29 15:02:00,53.2,33.1,30.13,WSW,248,2.0,13.0,46,0.00,,,0.09,meteohub,2013-04-29 22:02:00,
2013-04-29 15:07:00,52.5,33.4,30.14,NW,321,8.0,13.0,48,0.00,,,0.09,meteohub,2013-04-29 22:07:00,
2013-04-29 15:12:00,51.6,31.5,30.14,West,279,5.0,12.0,46,0.00,,,0.09,meteohub,2013-04-29 22:12:00,
2013-04-29 15:17:00,51.3,31.1,30.14,WNW,294,0.0,12.0,46,0.00,,,0.09,meteohub,2013-04-29 22:17:00,
2013-04-29 15:22:00,51.4,30.2,30.14,SW,229,6.0,12.0,44,0.00,,,0.09,meteohub,2013-04-29 22:22:00,
2013-04-29 15:27:00,51.6,30.4,30.14,South,189,6.0,10.0,44,0.00,,,0.09,meteohub,2013-04-29 22:27:00,
2013-04-29 15:32:00,51.4,30.2,30.14,WSW,258,3.0,9.0,44,0.00,,,0.09,meteohub,2013-04-29 22:32:00,
2013-04-29 15:37:00,50.5,30.0,30.14,West,266,3.0,9.0,45,0.00,,,0.09,meteohub,2013-04-29 22:37:00,
2013-04-29 15:42:00,49.6,29.7,30.14,SW,234,0.0,15.0,46,0.00,,,0.09,meteohub,2013-04-29 22:42:00,
2013-04-29 15:47:00,49.5,30.0,30.14,South,182,0.0,15.0,47,0.00,,,0.09,meteohub,2013-04-29 22:47:00,
2013-04-29 15:52:00,49.8,30.4,30.14,WSW,248,3.0,15.0,47,0.00,,,0.09,meteohub,2013-04-29 22:52:00,
2013-04-29 15:57:00,50.4,28.8,30.14,WSW,240,0.0,9.0,43,0.00,,,0.09,meteohub,2013-04-29 22:57:00,
2013-04-29 16:02:00,50.2,29.1,30.14,SSW,196,2.0,9.0,44,0.00,,,0.09,meteohub,2013-04-29 23:02:00,
2013-04-29 16:07:00,49.8,28.2,30.16,SW,228,2.0,9.0,43,0.00,,,0.09,meteohub,2013-04-29 23:07:00,
2013-04-29 16:12:00,49.3,27.7,30.16,SSW,211,0.0,9.0,43,0.00,,,0.09,meteohub,2013-04-29 23:12:00,
2013-04-29 16:17:00,49.3,28.2,30.16,WSW,255,2.0,9.0,44,0.00,,,0.09,meteohub,2013-04-29 23:17:00,
2013-04-29 16:22:00,49.5,28.9,30.16,West,269,0.0,8.0,45,0.00,,,0.09,meteohub,2013-04-29 23:22:00,
2013-04-29 16:27:00,49.8,28.8,30.16,WSW,248,3.0,6.0,44,0.00,,,0.09,meteohub,2013-04-29 23:27:00,
2013-04-29 16:32:00,50.2,29.1,30.16,West,269,2.0,5.0,44,0.00,,,0.09,meteohub,2013-04-29 23:32:00,
2013-04-29 16:37:00,50.5,29.5,30.15,West,277,2.0,5.0,44,0.00,,,0.09,meteohub,2013-04-29 23:37:00,
2013-04-29 16:42:00,50.7,28.4,30.15,WSW,240,0.0,6.0,42,0.00,,,0.09,meteohub,2013-04-29 23:42:00,
2013-04-29 16:47:00,51.3,30.0,30.15,WSW,240,1.0,6.0,44,0.00,,,0.09,meteohub,2013-04-29 23:47:00,
2013-04-29 16:52:00,51.4,29.7,30.15,WSW,238,2.0,13.0,43,0.00,,,0.09,meteohub,2013-04-29 23:52:00,
2013-04-29 16:57:00,51.4,29.1,30.15,West,272,3.0,13.0,42,0.00,,,0.09,meteohub,2013-04-29 23:57:00,
2013-04-29 17:02:00,50.5,28.2,30.15,SSW,209,0.0,13.0,42,0.00,,,0.09,meteohub,2013-04-30 00:02:00,
2013-04-29 17:07:00,50.5,28.9,30.14,WSW,250,4.0,10.0,43,0.00,,,0.09,meteohub,2013-04-30 00:07:00,
2013-04-29 17:12:00,50.7,29.1,30.14,SSW,197,0.0,8.0,43,0.00,,,0.09,meteohub,2013-04-30 00:12:00,
2013-04-29 17:17:00,50.7,29.1,30.14,SW,222,1.0,5.0,43,0.00,,,0.09,meteohub,2013-04-30 00:17:00,
2013-04-29 17:22:00,50.7,29.1,30.15,WNW,298,0.0,5.0,43,0.00,,,0.09,meteohub,2013-04-30 00:22:00,
2013-04-29 17:27:00,50.7,29.1,30.15,South,190,5.0,5.0,43,0.00,,,0.09,meteohub,2013-04-30 00:27:00,
2013-04-29 17:32:00,50.7,27.9,30.15,SSW,203,0.0,7.0,41,0.00,,,0.09,meteohub,2013-04-30 00:32:00,
2013-04-29 17:37:00,50.5,28.9,30.14,NW,306,0.0,7.0,43,0.00,,,0.09,meteohub,2013-04-30 00:37:00,
2013-04-29 17:42:00,50.5,28.9,30.14,WSW,254,1.0,8.0,43,0.00,,,0.09,meteohub,2013-04-30 00:42:00,
2013-04-29 17:47:00,50.4,28.8,30.14,South,173,3.0,8.0,43,0.00,,,0.09,meteohub,2013-04-30 00:47:00,
2013-04-29 17:52:00,50.0,28.4,30.15,SSE,159,1.0,8.0,43,0.00,,,0.09,meteohub,2013-04-30 00:52:00,
2013-04-29 17:57:00,49.8,27.7,30.15,WSW,244,0.0,8.0,42,0.00,,,0.09,meteohub,2013-04-30 00:57:00,
2013-04-29 18:02:00,49.8,28.2,30.15,WSW,246,0.0,8.0,43,0.00,,,0.09,meteohub,2013-04-30 01:02:00,
2013-04-29 18:07:00,49.6,28.6,30.15,NNW,327,1.0,7.0,44,0.00,,,0.09,meteohub,2013-04-30 01:07:00,
2013-04-29 18:12:00,49.6,28.6,30.15,West,265,1.0,5.0,44,0.00,,,0.09,meteohub,2013-04-30 01:12:00,
2013-04-29 18:17:00,49.6,27.5,30.15,WSW,252,1.0,5.0,42,0.00,,,0.09,meteohub,2013-04-30 01:17:00,
2013-04-29 18:22:00,49.3,27.7,30.15,West,263,2.0,4.0,43,0.00,,,0.09,meteohub,2013-04-30 01:22:00,
2013-04-29 18:27:00,48.7,27.9,30.15,WSW,249,1.0,5.0,44,0.00,,,0.09,meteohub,2013-04-30 01:27:00,
2013-04-29 18:32:00,48.0,27.1,30.15,WSW,244,0.0,5.0,44,0.00,,,0.09,meteohub,2013-04-30 01:32:00,
2013-04-29 18:37:00,46.8,26.6,30.15,SSW,192,2.0,8.0,45,0.00,,,0.09,meteohub,2013-04-30 01:37:00,
2013-04-29 18:42:00,46.0,26.4,30.15,SW,220,2.0,9.0,46,0.00,,,0.09,meteohub,2013-04-30 01:42:00,
2013-04-29 18:47:00,45.7,26.6,30.15,SW,233,2.0,9.0,47,0.00,,,0.09,meteohub,2013-04-30 01:47:00,
2013-04-29 18:52:00,45.1,26.6,30.14,WSW,244,4.0,8.0,48,0.00,,,0.09,meteohub,2013-04-30 01:52:00,
2013-04-29 18:57:00,44.8,26.8,30.14,SSW,206,0.0,7.0,49,0.00,,,0.09,meteohub,2013-04-30 01:57:00,
2013-04-29 19:02:00,44.4,26.4,30.14,SW,224,0.0,5.0,49,0.00,,,0.09,meteohub,2013-04-30 02:02:00,
2013-04-29 19:07:00,44.2,26.2,30.14,SW,234,3.0,8.0,49,0.00,,,0.09,meteohub,2013-04-30 02:07:00,
2013-04-29 19:12:00,43.9,25.5,30.14,SW,236,4.0,8.0,48,0.00,,,0.09,meteohub,2013-04-30 02:12:00,
2013-04-29 19:17:00,43.5,25.7,30.14,WSW,242,2.0,8.0,49,0.00,,,0.09,meteohub,2013-04-30 02:17:00,
2013-04-29 19:22:00,43.2,26.2,30.13,SSW,206,1.0,8.0,51,0.00,,,0.09,meteohub,2013-04-30 02:22:00,
2013-04-29 19:27:00,42.6,25.7,30.13,SSW,211,3.0,8.0,51,0.00,,,0.09,meteohub,2013-04-30 02:27:00,
2013-04-29 19:32:00,42.3,25.9,30.13,WSW,246,1.0,7.0,52,0.00,,,0.09,meteohub,2013-04-30 02:32:00,
2013-04-29 19:37:00,41.7,25.3,30.13,WSW,258,3.0,7.0,52,0.00,,,0.09,meteohub,2013-04-30 02:37:00,
2013-04-29 19:42:00,41.4,25.5,30.13,WSW,247,5.0,9.0,53,0.00,,,0.09,meteohub,2013-04-30 02:42:00,
2013-04-29 19:47:00,41.2,25.9,30.13,SW,221,3.0,19.0,54,0.00,,,0.09,meteohub,2013-04-30 02:47:00,
2013-04-29 19:52:00,40.8,25.5,30.12,West,266,0.0,19.0,54,0.00,,,0.09,meteohub,2013-04-30 02:52:00,
2013-04-29 19:57:00,40.5,25.5,30.12,WSW,238,3.0,19.0,55,0.00,,,0.09,meteohub,2013-04-30 02:57:00,
2013-04-29 20:02:00,40.3,25.9,30.12,WSW,249,3.0,7.0,56,0.00,,,0.09,meteohub,2013-04-30 03:02:00,
2013-04-29 20:07:00,39.9,25.9,30.14,West,279,1.0,16.0,57,0.00,,,0.09,meteohub,2013-04-30 03:07:00,
2013-04-29 20:12:00,39.7,26.2,30.14,West,259,0.0,16.0,58,0.00,,,0.09,meteohub,2013-04-30 03:12:00,
2013-04-29 20:17:00,39.6,26.1,30.14,West,259,1.0,16.0,58,0.00,,,0.09,meteohub,2013-04-30 03:17:00,
2013-04-29 20:22:00,39.4,25.9,30.14,SW,217,0.0,8.0,58,0.00,,,0.09,meteohub,2013-04-30 03:22:00,
2013-04-29 20:27:00,39.0,25.9,30.14,West,259,1.0,8.0,59,0.00,,,0.09,meteohub,2013-04-30 03:27:00,
2013-04-29 20:32:00,38.8,25.3,30.14,WSW,246,1.0,8.0,58,0.00,,,0.09,meteohub,2013-04-30 03:32:00,
2013-04-29 20:37:00,38.7,25.2,30.14,SSW,205,1.0,5.0,58,0.00,,,0.09,meteohub,2013-04-30 03:37:00,
2013-04-29 20:42:00,38.7,25.5,30.14,SW,235,0.0,5.0,59,0.00,,,0.09,meteohub,2013-04-30 03:42:00,
2013-04-29 20:47:00,38.3,25.2,30.14,SW,221,0.0,5.0,59,0.00,,,0.09,meteohub,2013-04-30 03:47:00,
2013-04-29 20:52:00,38.1,25.9,30.14,SW,217,0.0,4.0,61,0.00,,,0.09,meteohub,2013-04-30 03:52:00,
2013-04-29 20:57:00,37.9,25.7,30.14,WSW,257,4.0,4.0,61,0.00,,,0.09,meteohub,2013-04-30 03:57:00,
2013-04-29 21:01:00,37.8,25.5,30.14,SW,223,0.0,5.0,61,0.00,,,0.09,meteohub,2013-04-30 04:01:00,
2013-04-29 21:02:00,37.6,25.3,30.14,SW,223,0.0,5.0,61,0.00,,,0.09,meteohub,2013-04-30 04:02:00,
2013-04-29 21:03:00,37.6,25.3,30.14,South,187,0.0,5.0,61,0.00,,,0.09,meteohub,2013-04-30 04:03:00,
2013-04-29 21:07:00,37.2,25.3,30.14,South,187,0.0,5.0,62,0.00,,,0.09,meteohub,2013-04-30 04:07:00,
2013-04-29 21:13:00,37.0,25.2,30.14,SSE,162,2.0,5.0,62,0.00,,,0.09,meteohub,2013-04-30 04:13:00,
2013-04-29 21:18:00,36.9,25.0,30.14,South,169,0.0,4.0,62,0.00,,,0.09,meteohub,2013-04-30 04:18:00,
2013-04-29 21:23:00,36.7,25.3,30.14,South,178,0.0,9.0,63,0.00,,,0.09,meteohub,2013-04-30 04:23:00,
2013-04-29 21:28:00,36.1,25.2,30.14,South,175,0.0,9.0,64,0.00,,,0.09,meteohub,2013-04-30 04:28:00,
2013-04-29 21:33:00,36.0,25.3,30.14,South,175,0.0,4.0,65,0.00,,,0.09,meteohub,2013-04-30 04:33:00,
2013-04-29 21:38:00,35.4,24.8,30.14,South,175,0.0,4.0,65,0.00,,,0.09,meteohub,2013-04-30 04:38:00,
2013-04-29 21:43:00,35.2,25.0,30.14,South,190,0.0,3.0,66,0.00,,,0.09,meteohub,2013-04-30 04:43:00,
2013-04-29 21:48:00,35.2,25.0,30.14,SSW,209,2.0,4.0,66,0.00,,,0.09,meteohub,2013-04-30 04:48:00,
2013-04-29 21:53:00,35.2,25.0,30.13,South,171,0.0,6.0,66,0.00,,,0.09,meteohub,2013-04-30 04:53:00,
2013-04-29 21:58:00,35.2,25.0,30.13,South,179,1.0,6.0,66,0.00,,,0.09,meteohub,2013-04-30 04:58:00,
2013-04-29 22:03:00,35.1,25.2,30.13,South,183,0.0,5.0,67,0.00,,,0.09,meteohub,2013-04-30 05:03:00,
2013-04-29 22:08:00,35.1,25.2,30.13,SW,217,0.0,3.0,67,0.00,,,0.09,meteohub,2013-04-30 05:08:00,
2013-04-29 22:13:00,34.9,25.0,30.13,SSW,192,0.0,3.0,67,0.00,,,0.09,meteohub,2013-04-30 05:13:00,
2013-04-29 22:19:00,34.7,24.8,30.13,SSW,192,0.0,4.0,67,0.00,,,0.09,meteohub,2013-04-30 05:19:00,
2013-04-29 22:24:00,34.5,25.0,30.14,SSW,203,0.0,4.0,68,0.00,,,0.09,meteohub,2013-04-30 05:24:00,
2013-04-29 22:29:00,34.3,24.8,30.14,SSW,204,0.0,4.0,68,0.00,,,0.09,meteohub,2013-04-30 05:29:00,
2013-04-29 22:34:00,34.3,25.2,30.14,SSW,204,0.0,4.0,69,0.00,,,0.09,meteohub,2013-04-30 05:34:00,
2013-04-29 22:39:00,34.2,25.0,30.14,SSW,204,0.0,2.0,69,0.00,,,0.09,meteohub,2013-04-30 05:39:00,
2013-04-29 22:44:00,34.0,24.8,30.14,SSW,205,0.0,2.0,69,0.00,,,0.09,meteohub,2013-04-30 05:44:00,
2013-04-29 22:49:00,33.6,24.8,30.14,SSW,205,0.0,2.0,70,0.00,,,0.09,meteohub,2013-04-30 05:49:00,
2013-04-29 22:54:00,33.4,24.8,30.13,SSW,196,0.0,4.0,70,0.00,,,0.09,meteohub,2013-04-30 05:54:00,
2013-04-29 22:59:00,33.3,24.8,30.13,SSW,196,0.0,4.0,71,0.00,,,0.09,meteohub,2013-04-30 05:59:00,
2013-04-29 23:04:00,32.9,24.6,30.13,SSW,196,0.0,3.0,71,0.00,,,0.09,meteohub,2013-04-30 06:04:00,
2013-04-29 23:09:00,32.7,24.4,30.13,SSW,196,1.0,3.0,71,0.00,,,0.09,meteohub,2013-04-30 06:09:00,
2013-04-29 23:14:00,32.5,24.4,30.13,SSW,196,0.0,2.0,72,0.00,,,0.09,meteohub,2013-04-30 06:14:00,
2013-04-29 23:20:00,32.4,24.3,30.13,SSW,196,0.0,2.0,72,0.00,,,0.09,meteohub,2013-04-30 06:20:00,
2013-04-29 23:25:00,32.2,24.4,30.13,SSW,196,0.0,2.0,73,0.00,,,0.09,meteohub,2013-04-30 06:25:00,
2013-04-29 23:30:00,32.0,24.3,30.13,SSW,196,0.0,2.0,73,0.00,,,0.09,meteohub,2013-04-30 06:30:00,
2013-04-29 23:35:00,31.8,23.9,30.14,SSW,196,1.0,2.0,72,0.00,,,0.09,meteohub,2013-04-30 06:35:00,
2013-04-29 23:40:00,31.6,23.9,30.14,SSW,196,0.0,1.0,73,0.00,,,0.09,meteohub,2013-04-30 06:40:00,
2013-04-29 23:45:00,31.5,23.9,30.14,SSW,196,0.0,2.0,73,0.00,,,0.09,meteohub,2013-04-30 06:45:00,
2013-04-29 23:50:00,31.3,23.7,30.14,SSW,196,0.0,2.0,73,0.00,,,0.09,meteohub,2013-04-30 06:50:00,
2013-04-29 23:55:00,30.9,23.4,30.14,SSW,196,0.0,1.0,73,0.00,,,0.09,meteohub,2013-04-30 06:55:00,